Regional Weather Roundup
Issued by NWS

Home | Current Version | Previous Version | Text Only | Print | Product List | Glossary Off
Versions: 1 2 3 4 5 6 7 8 9 10 11 12 13 14 15 16 17 18 19 20 21 22 23 24 25 26 27 28 29 30 31 32 33 34 35 36 37 38 39 40 41 42 43 44 45 46 47 48 49 50

000
ASUS43 KFSD 250410
RWRSD

WEATHER ROUNDUP FOR SOUTH DAKOTA
NATIONAL WEATHER SERVICE SIOUX FALLS SD
1100 PM CDT TUE MAY 24 2016

NOTE: "FAIR" INDICATES FEW OR NO CLOUDS BELOW 12,000 FEET WITH NO
SIGNIFICANT WEATHER AND/OR OBSTRUCTIONS TO VISIBILITY.


SDZ001>005-009-010-012>017-250500-
NORTHWEST AND NORTH CENTRAL SOUTH DAKOTA

CITY           SKY/WX    TMP DP  RH WIND       PRES   REMARKS
BUFFALO          N/A     59  44  57 SE6       29.77R
FAITH            N/A     56  50  80 SE12      29.87F
MOBRIDGE       CLOUDY    70  51  51 E12       29.82R
$$

SDZ012>016-024>037-041>051-057-063-072>074-250500-
SOUTHWEST AND SOUTH CENTRAL SOUTH DAKOTA

CITY           SKY/WX    TMP DP  RH WIND       PRES   REMARKS
RAPID CTY ARPT CLOUDY    53  49  86 SE9       29.84S
PIERRE         TSTM      60  54  80 W23G41    29.86R
CUSTER         CLOUDY    46  43  89 VRB3      29.89R
PHILIP         LGT RAIN  57  56  96 N13       29.92R
PINE RIDGE     CLOUDY    53  48  83 NE15G26   29.84F
WINNER         MOCLDY    70  55  59 SE14      29.77S
$$

SDZ004>011-016>023-039-040-250500-
NORTHEAST SOUTH DAKOTA

CITY           SKY/WX    TMP DP  RH WIND       PRES   REMARKS
ABERDEEN       CLOUDY    70  49  47 NE12      29.82R
WATERTOWN      CLOUDY    69  44  40 E6        29.84F
BROOKINGS      CLOUDY    68  50  52 SE8       29.85S
SISSETON         N/A     66  48  52 CALM      29.82S
$$

SDZ017-020-022-023-036>040-048>070-250500-
SOUTHEAST SOUTH DAKOTA

CITY           SKY/WX    TMP DP  RH WIND       PRES   REMARKS
SIOUX FALLS    CLOUDY    72  61  68 S8        29.85R
HURON          CLOUDY    64  54  69 E6        29.80S
CHAMBERLAIN    CLOUDY    72  59  63 E13       29.76F
MITCHELL       CLOUDY    71  59  65 SE9       29.82R
YANKTON        PTCLDY    72  61  68 SE8       29.81F
$$

ABBREVIATIONS USED IN REMARKS
   TC - TEMPERATURE IN CELSIUS
  WCI - WIND CHILL INDEX
   HX - HEAT INDEX
  VSB - VISIBILITY





USA.gov is the U.S. government's official web portal to all federal, state and local government web resources and services.